Погода в Жалтыре

Погода в Жалтыре : погода сейчас, прогноз погоды и архив. Всё, что Вы хотите узнать о погоде в Жалтыре!

Поиск расширенной информации на нашем сайте:

Другие новости

Новости СМИ2

Главная страница сайта

Новости сайта

03.07.2017

Напоминаем, что на нашем специализированном сайте Метеоцентр.Азия вы можете получить высокодетализированные автоматические прогнозы погоды по пунктам России, СНГ и мира в авиационном формате (включающие направление и скорость ветра, видимость, явления погоды, количество и форму облачности, нижнюю и верхнюю границу облачности).

Рекомендуем: традиционные стили ушу

Погода в Жалтыре - сегодня

Время (UTC), дата Ветер
(°,м/с) 
Видим.   Явления Облачность Т
(°С)
Тd
(°С)
f(%) Тe
(°С)
Pmin
(гПа)
dP
(гПа)
Po
(мм)
O2
(г/м3)
Тmin Tmax R s Состояние
почвы
15 13.06.18 300 (СЗ) 4000 м    3/3 600 м кучево-дожд. 
[Cb calv]
+16.4 +0.8 35 +16  1011.3  0.7  732  278    +18.5       
18 13.06.18 280 (З) н/о    ясно 
+9 +0.7 56 +10  1010  -2.1  730  285    +18.5       
21 13.06.18 180 (Ю) н/о    ясно 
+6 +1.3 72 +7  1014.2  3.6  733  289           
00 14.06.18 180 (Ю) 4000 м    6/0 средняя 
[Ac cast]
+6.5 +1.6 71 +7  1014.1  733  288           
06 14.06.18 250 (З) 4000 м    8/8 600 м 
[Cu med, cong]
+19.9 +2.8 32 +21  1012.9  -0.4  733  275  +5.8         
09 14.06.18 270 (З) 4000 м    9/8 600 м кучево-дожд., средняя 
[Cb calv|Ac cuf]
+22.7 +2.5 27 +23  1011.8  -0.7  733  272           
12 14.06.18 250 (З) 4000 м    10/4 600 м средняя 
[Cu med, cong|Ac trans]
+23.8 +4.8 29 +24  1011.1  -0.6  732  271           
15 14.06.18 320 (СЗ) 4000 м    8/8 600 м кучево-дожд. 
[Cb cap]
+21.4 +3.1 30 +21  1011.1  -0.2  732  273    +24.3       
18 14.06.18 300 (СЗ) н/о    9/9 600 м кучево-дожд. 
[Cb cap]
+16.2 +5.5 49 +18  1011.9  0.1  732  278    +24.3       
21 14.06.18 220 (ЮЗ) н/о    10/10 600 м кучево-дожд. 
[Cb cap]
+13.5 +5 56 +14  1011.5  -0.7  732  280           
00 15.06.18 190 (Ю) 4000 м    9/9 600 м кучево-дожд. 
[Cb cap]
+15 +6 55 +15  1010.5  -0.8  731  278           
15 15.06.18 260 (З) 4000 м    10/10 300 м кучево-дожд. 
[Cb cap]
+23.3 +8.2 38 +23  1007.2  0.5  729  269    +28       
18 15.06.18 310 (СЗ) н/о    10/10 600 м кучево-дожд. 
[Cb cap]
+18 +9.8 59 +20  1008.7  0.9  730  274    +28       
21 15.06.18 350 (С) н/о    10/10 600 м кучево-дожд. 
[Cb cap]
+14.8 +9.4 70 +16  1009.6  0.5  731  277           
00 16.06.18 тихо ()   4000 м    9/9 600 м кучево-дожд. 
[Cb cap]
+13 +8.7 75 +13  1010.7  0.8  731  280           
09 16.06.18 200 (Ю) 4000 м  в посл. час ливневой дождь  9/9 600 м кучево-дожд. 
[Cb cap]
+13.4 +11.5 88 +18  1010.1  -0.9  731  278           
21 16.06.18 170 (Ю) н/о    ясно 
+10.2 +7.3 82 +11  1007.2  -0.9  728  282           
00 17.06.18 150 (ЮВ) 4000 м    10/10 600 м кучево-дожд. 
[Cb cap]
+10.8 +8.4 85 +10  1005.6  -1.5  727  280           
09 17.06.18 200 (Ю) 4000 м    9/9 600 м кучево-дожд. 
[Cb cap]
+15.7 +8.5 62 +17  1005.5  728  276           
12 17.06.18 210 (ЮЗ) 4000 м    8/3 1000 м верхняя 
[Cu hum|Cs]
+17.9 +6.6 48 +19  1004.6  -0.6  727  274           
21 17.06.18 150 (ЮВ) н/о    3/0 верхняя 
[Ci fib]
+8.8 +5.8 81 +9  1004.2  -1  726  282           
00 18.06.18 110 (В) 4000 м    3/0 верхняя 
[Ci ing]
+6.9 +5.1 88 +8  1003.7  -0.7  725  284           
06 18.06.18 020 (С) 4000 м    5/3 600 м верхняя 
[Cu hum|Ci]
+19.2 +2.7 33 +20  1001.6  -0.8  725  272  +5.8         
09 18.06.18 210 (ЮЗ) 4000 м    5/3 600 м верхняя 
[Cu hum|Ci fib]
+21 +5.6 37 +21  1000.2  -1.1  724  270           
12 18.06.18 340 (С) 4000 м    5/5 600 м 
[Cu hum]
+20.8 +4.1 33 +21  1000  -0.2  724  270           
Время (UTC), дата Ветер
(°,м/с) 
Видим.   Явления Облачность Т
(°С)
Тd
(°С)
f(%) Тe
(°С)
Pmin
(гПа)
dP
(гПа)
Po
(мм)
O2
(г/м3)
Тmin Tmax R s Состояние
почвы

Для получения пояснительной информации подведите курсор к названию столбца.

ПОГОДА в Жалтыре - архив

Всё, что Вы хотите узнать о погоде в Жалтыре - удобно и подробно!

Выберите нужную дату (начиная с 1 января 2015* года) и нажмите кнопку "Найти".
Будут отображены архивные сводки погоды по пункту Жалтыр, начиная с указанной даты.


Отображать данные в формате CSV (для использования в таблицах Excel)


Внимание! Наш архив погоды предназначен исключительно для личного некоммерческого использования в познавательных целях. Если Вам необходимы официальные справки о состоянии погоды (для производственных, юридических, коммерческих и т.п. целей), обращайтесь в органы Росгидромета.

*Примечание: данная дата относится к архиву по метеостанциям СССР (Россия, СНГ, Балтия).
Архив по метеостанциям Зарубежной Европы и Азии (кроме Китая) хранится 10 дней, по другим регионам земного шара (Китай, Африка, Америка, Австралия, Океания) - 1 день.

Жалтыр - район местоположения метеостанции


Название, широта, долгота, высота метеостанции:
Жалтыр 51.6°ш. 69.8°д. 620 м над ур. моря [Казахстан]

Дополнительная информация

В oтличие oт бoльшинства пoгoдных сайтoв мы публикуем пoдрoбную метеoинфoрмацию в детальнoм прoфессиoнальнoм фoрмате.

Характеристики температуры и влажнoсти вoздуха измеряются на высoте 2 м в тени вдали oт зданий и деревьев.
Скoрoсть ветра измеряется на высoте 10 м (на урoвне рoста челoвека скoрoсть ветра ниже в 1.5-2 раза). Если метеoстанция нахoдится в гoрoде или в лесу, тo скoрoсть ветра занижена на 2-4 м/с пo сравнению с oткрытым местoм. Скoрoсть ветра над акватoриями крупных рек и oзёр, а также на вершинах хoлмoв на 2-5 м/с выше, чем в oбычных услoвиях.
Атмoсфернoе давление в разных тoчках местнoсти мoжет значительнo oтличаться oт давления на метеoстанции, в зависимoсти oт услoвий рельефа (при пoдъёме на 10 м давление пoнижается примернo на 1 мм рт.ст.).